Location: La Brionne
(46.1728°N, 1.7849°E)
Time: 18:18:19
(UTC+00:00)

USA 215 - Pass Details

Date: 25 October 2021
Orbit: 1099 x 1109 km, 123.0° (Epoch: 20 November)

Event Time Altitude Azimuth Distance (km) Brightness Sun altitude
Exits shadow 18:24:09 14° 47° (NE) 2,679 4.9 -17.0°
Maximum altitude 18:29:40 53° 335° (NNW) 1,332 3.8 -18.0°
Drops below altitude 10° 18:35:59 10° 261° (W) 2,962 6.7 -19.1°
Sets 18:38:31 0° 257° (WSW) 3,920 7.6 -19.5°
